Location: Warner Observatory
(35.1353°N, 89.5455°W)
Time: 12:30:08
(UTC-05:00)

Amateur Radio Satellites - All Passes

Search period start: 21 October 2017 12:00
Search period end: 22 October 2017 12:00
Location: Warner Observatory, 35.1353°N, 89.5455°W

Satellite Date Start Highest point End Downlink Frequencies (MHz)
Time Altitude Azimuth
BEESAT 3 21 Oct 12:04:23 12:08:22 83° 299° (WNW) 12:12:24 437.485
AO-85 21 Oct 12:12:44 12:15:20 17° 110° (ESE) 12:17:57 145.980
ESTCUBE 1 21 Oct 12:34:17 12:38:46 83° 286° (WNW) 12:43:15 437.505/2401.250
EO-79 21 Oct 12:35:33 12:39:38 46° 260° (W) 12:43:47 145.935-145.965
POLYITAN 1 21 Oct 12:40:42 12:44:43 40° 261° (W) 12:48:47 437.675
Oscar 19 21 Oct 13:00:35 13:05:04 30° 69° (ENE) 13:09:32 437.125/150
SPROUT 21 Oct 13:01:44 13:05:51 44° 99° (E) 13:09:56 437.525
LO-87 21 Oct 13:01:50 13:04:23 18° 290° (WNW) 13:06:55 145.935 - 145.965
QB50P2 21 Oct 13:02:01 13:05:15 21° 265° (W) 13:08:30 145.880/145.840
NANOSAT C BR1 21 Oct 13:03:45 13:07:13 25° 264° (W) 13:10:44 145.865
DUCHIFAT 1 21 Oct 13:14:03 13:17:20 22° 265° (W) 13:20:38 145.980
BUGSAT 1 21 Oct 13:16:01 13:20:11 89° 269° (W) 13:24:26 437.445
DX 1 21 Oct 13:24:34 13:25:33 11° 92° (E) 13:26:32 434.975-435.025
BEESAT 2 21 Oct 13:28:13 13:31:51 33° 304° (NW) 13:35:32 435.950
50 SAT 21 Oct 13:28:37 13:29:51 12° 94° (E) 13:31:04 437.505
SRMSAT 21 Oct 13:31:02 13:32:19 11° 195° (SSW) 13:33:36 437.500
Gurwin Techsat 1B 21 Oct 13:40:30 13:45:37 52° 73° (ENE) 13:50:46 435.225
UKube-1 21 Oct 13:45:39 13:47:09 12° 93° (E) 13:48:38 .
AO-85 21 Oct 13:52:03 13:55:27 29° 306° (NW) 13:58:55 145.980
VELOX 1 21 Oct 13:55:15 13:59:39 65° 285° (WNW) 14:04:03 145.980
M-CUBED/EXP-1 PRIME 21 Oct 14:03:24 14:06:40 40° 255° (WSW) 14:09:49 437.505
AO-7 21 Oct 14:06:27 14:12:35 24° 57° (ENE) 14:18:42 .
SPROUT 21 Oct 14:39:10 14:41:18 14° 294° (WNW) 14:43:27 437.525
Oscar 19 21 Oct 14:39:57 14:44:18 27° 264° (W) 14:48:38 437.125/150
DX 1 21 Oct 14:57:43 15:02:00 55° 286° (WNW) 15:06:16 434.975-435.025
50 SAT 21 Oct 14:59:21 15:02:10 26° 287° (WNW) 15:04:58 437.505
ITAMSAT 1 21 Oct 15:14:45 15:19:26 36° 70° (ENE) 15:24:08 435.822/435.867
UKube-1 21 Oct 15:19:13 15:23:23 49° 286° (WNW) 15:27:33 .
ITUPSAT 1 21 Oct 15:19:29 15:22:32 17° 94° (E) 15:25:35 437.325
Gurwin Techsat 1B 21 Oct 15:22:35 15:25:49 16° 267° (W) 15:29:04 435.225
SO-50 21 Oct 15:23:16 15:27:27 33° 54° (NE) 15:31:39 436.795
BEESAT 21 Oct 15:33:26 15:37:20 25° 96° (E) 15:41:12 436.000
ISS 21 Oct 15:34:56 15:36:40 13° 27° (NNE) 15:38:24 437.550
AO-7 21 Oct 15:56:17 16:04:33 72° 255° (WSW) 16:12:51 .
MOZHAYETS 4 21 Oct 16:14:14 16:18:49 85° 100° (E) 16:23:23
PCSat 21 Oct 16:24:37 16:27:37 15° 48° (NE) 16:30:37 145.827
CUBESAT XI-V 21 Oct 16:29:26 16:33:09 24° 96° (E) 16:36:51 437.345
nSIGHT-1 21 Oct 16:34:07 16:37:13 47° 39° (NE) 16:40:20 .
ITAMSAT 1 21 Oct 16:54:51 16:58:55 23° 264° (W) 17:03:01 435.822/435.867
ITUPSAT 1 21 Oct 16:55:59 17:00:30 42° 288° (WNW) 17:04:58 437.325
SO-50 21 Oct 17:04:02 17:07:43 24° 249° (WSW) 17:11:25 436.795
DOVE 4 21 Oct 17:08:42 17:12:44 52° 74° (ENE) 17:16:57 437.250
ISS 21 Oct 17:10:13 17:13:29 77° 225° (SW) 17:16:45 437.550
BEESAT 21 Oct 17:10:56 17:15:01 29° 290° (WNW) 17:19:05 436.000
LilacSat-2 21 Oct 17:16:34 17:18:16 13° 68° (ENE) 17:19:59 437.200
XW-2D 21 Oct 17:21:38 17:23:39 14° 69° (ENE) 17:25:40 145.860 - 145.880
KKS-1 21 Oct 17:32:06 17:36:04 30° 98° (E) 17:40:02 437.445
CUTE-I 21 Oct 17:33:48 17:37:54 23° 67° (ENE) 17:42:01 437.470
XW-2B 21 Oct 17:34:19 17:37:04 19° 70° (ENE) 17:39:49 145.730 - 145.750
XW-2C 21 Oct 17:56:45 18:00:18 38° 74° (ENE) 18:03:50 145.795 - 145.815
STARS 21 Oct 18:01:14 18:04:54 25° 96° (E) 18:08:31 437.465
PCSat 21 Oct 18:06:11 18:11:36 76° 246° (WSW) 18:16:59 145.827
CUBESAT XI-V 21 Oct 18:06:33 18:10:26 27° 290° (WNW) 18:14:18 437.345
nSIGHT-1 21 Oct 18:11:47 18:13:10 12° 233° (SW) 18:14:33 .
HO-68 21 Oct 18:15:29 18:21:28 30° 64° (ENE) 18:27:29 435.675
KAITUO 1B 21 Oct 18:35:56 18:39:40 85° 257° (WSW) 18:43:24 145.475/437.950
XW-2F 21 Oct 18:40:12 18:43:55 55° 260° (W) 18:47:38 145.980 - 146.000
NUDT-PHONESAT 21 Oct 18:47:49 18:51:30 60° 260° (W) 18:55:10 437.300
LilacSat-2 21 Oct 18:48:38 18:52:11 36° 262° (W) 18:55:44 437.200
XW-2D 21 Oct 18:54:05 18:57:31 32° 262° (W) 19:00:56 145.860 - 145.880
CUBEBUG 2 21 Oct 18:55:19 18:59:05 25° 70° (ENE) 19:02:54 437.445
XW-2B 21 Oct 19:08:02 19:11:05 23° 264° (W) 19:14:07 145.730 - 145.750
KKS-1 21 Oct 19:09:03 19:12:24 21° 292° (WNW) 19:15:44 437.445
CUTE-I 21 Oct 19:12:45 19:17:40 38° 261° (W) 19:22:37 437.470
CUTE 1.7 + AOD 2 21 Oct 19:15:45 19:19:57 72° 77° (ENE) 19:24:10 437.475
SEEDS 21 Oct 19:20:18 19:24:17 46° 74° (ENE) 19:28:17 437.485
O/OREOS (USA 219) 21 Oct 19:29:40 19:32:04 14° 99° (E) 19:34:28 437.305
UWE-3 21 Oct 19:29:58 19:34:06 33° 72° (ENE) 19:38:16 435.000/436.395/437.385
STRAND 1 21 Oct 19:30:56 19:34:50 21° 95° (E) 19:38:43 437.568
XW-2C 21 Oct 19:33:25 19:34:35 11° 267° (W) 19:35:46 145.795 - 145.815
STARS 21 Oct 19:37:29 19:41:06 25° 291° (WNW) 19:44:42 437.465
AAUSAT CUBESAT 2 21 Oct 19:40:09 19:43:47 32° 72° (ENE) 19:47:27 437.432
Oscar 11 21 Oct 19:41:12 19:43:00 12° 66° (ENE) 19:44:49 .
XW-2A 21 Oct 19:58:48 20:02:13 85° 78° (ENE) 20:05:38 145.665 - 145.685
HO-68 21 Oct 20:02:02 20:08:51 47° 260° (W) 20:15:45 435.675
AO-73 21 Oct 20:17:04 20:21:29 51° 74° (ENE) 20:25:55 145.935
BEESAT 3 21 Oct 20:24:37 20:27:36 20° 52° (NE) 20:30:32 437.485
CUBEBUG 2 21 Oct 20:31:30 20:35:30 29° 264° (W) 20:39:36 437.445
ZACube-1 21 Oct 20:39:53 20:44:27 77° 258° (WSW) 20:49:04 437.345
YUBILEINY 21 Oct 20:44:43 20:53:30 66° 81° (E) 21:02:14 435.215
AO-85 21 Oct 20:47:30 20:48:06 10° 46° (NE) 20:48:43 145.980
FO-29 21 Oct 20:53:33 20:59:48 31° 96° (E) 21:06:26 435.910
DELFI C3 21 Oct 20:55:25 20:57:51 16° 69° (ENE) 21:00:17 145.870
SEEDS 21 Oct 20:58:47 21:00:10 11° 268° (W) 21:01:32 437.485
O/OREOS (USA 219) 21 Oct 21:06:40 21:11:00 44° 293° (WNW) 21:15:25 437.305
UWE-3 21 Oct 21:07:04 21:10:32 21° 266° (W) 21:14:03 435.000/436.395/437.385
STRAND 1 21 Oct 21:09:21 21:14:04 38° 289° (WNW) 21:18:47 437.568
Oscar 11 21 Oct 21:14:28 21:18:40 50° 261° (W) 21:22:52 .
AAUSAT CUBESAT 2 21 Oct 21:16:44 21:19:16 16° 266° (W) 21:21:49 437.432
EO-88 21 Oct 21:17:20 21:19:16 14° 69° (ENE) 21:21:12 145.990 - 145.960
Max Valier Satellite 21 Oct 21:29:14 21:32:28 29° 73° (ENE) 21:35:43 145.860
BEESAT 2 21 Oct 21:48:14 21:52:09 48° 58° (ENE) 21:56:00 435.950
AO-73 21 Oct 21:55:54 21:57:56 13° 268° (W) 21:59:58 145.935
BEESAT 3 21 Oct 22:01:45 22:05:08 28° 247° (WSW) 22:08:27 437.485
UNISAT 6 21 Oct 22:11:03 22:15:04 30° 96° (E) 22:18:58 437.425
AO-85 21 Oct 22:24:24 22:29:05 83° 63° (ENE) 22:34:06 145.980
TIGRISAT 21 Oct 22:25:11 22:29:29 39° 98° (E) 22:33:39 435.000
DELFI C3 21 Oct 22:28:54 22:32:19 29° 263° (W) 22:35:46 145.870
FO-29 21 Oct 22:38:06 22:44:49 48° 289° (WNW) 22:52:06 435.910
YUBILEINY 21 Oct 22:43:05 22:49:27 23° 278° (W) 22:55:49 435.215
PRISM 21 Oct 22:47:02 22:50:38 29° 98° (E) 22:54:15 437.425
EO-88 21 Oct 22:49:24 22:52:37 29° 263° (W) 22:55:50 145.990 - 145.960
Max Valier Satellite 21 Oct 23:04:12 23:06:18 14° 266° (W) 23:08:25 145.860
RS-15 21 Oct 23:18:43 23:28:57 33° 104° (ESE) 23:39:13 29.354- 29.394
BEESAT 2 21 Oct 23:28:07 23:29:24 11° 252° (WSW) 23:30:39 435.950
ESTCUBE 1 21 Oct 23:30:14 23:34:38 59° 75° (ENE) 23:39:03 437.505/2401.250
LO-87 21 Oct 23:33:07 23:36:43 79° 259° (W) 23:40:20 145.935 - 145.965
UNISAT 6 21 Oct 23:48:04 23:51:32 22° 291° (WNW) 23:54:57 437.425
SPROUT 21 Oct 23:52:10 23:55:31 23° 70° (ENE) 23:58:52 437.525
TIGRISAT 22 Oct 00:02:52 00:05:47 17° 293° (WNW) 00:08:38 435.000
PRISM 22 Oct 00:22:46 00:25:40 19° 291° (WNW) 00:28:34 437.425
EO-79 22 Oct 00:23:19 00:27:12 33° 98° (E) 00:31:02 145.935-145.965
POLYITAN 1 22 Oct 00:28:27 00:32:27 38° 98° (E) 00:36:23 437.675
AIST 2D 22 Oct 00:36:09 00:39:25 39° 285° (WNW) 00:42:39 435.315
QB50P2 22 Oct 00:48:39 00:52:56 80° 103° (ESE) 00:57:10 145.880/145.840
VELOX 1 22 Oct 00:48:49 00:53:10 72° 75° (ENE) 00:57:33 145.980
NANOSAT C BR1 22 Oct 00:50:09 00:54:22 64° 101° (ESE) 00:58:31 145.865
DUCHIFAT 1 22 Oct 00:59:53 01:04:07 74° 103° (ESE) 01:08:17 145.980
BUGSAT 1 22 Oct 01:02:01 01:04:45 17° 94° (E) 01:07:26 437.445
ESTCUBE 1 22 Oct 01:11:09 01:11:44 10° 269° (W) 01:12:20 437.505/2401.250
Oscar 19 22 Oct 01:16:50 01:19:10 13° 92° (E) 01:21:30 437.125/150
50 SAT 22 Oct 01:24:01 01:27:08 44° 75° (ENE) 01:30:15 437.505
NO-84 22 Oct 01:24:19 01:26:58 16° 121° (ESE) 01:29:39 435.350 FM
SPROUT 22 Oct 01:27:41 01:31:14 25° 264° (W) 01:34:48 437.525
RS-15 22 Oct 01:28:21 01:40:32 68° 303° (WNW) 01:52:51 29.354- 29.394
M-CUBED/EXP-1 PRIME 22 Oct 01:45:02 01:46:40 12° 100° (E) 01:48:20 437.505
DX 1 22 Oct 01:49:32 01:53:50 83° 78° (ENE) 01:58:11 434.975-435.025
EO-79 22 Oct 01:59:53 02:02:39 17° 292° (WNW) 02:05:24 145.935-145.965
Gurwin Techsat 1B 22 Oct 02:00:25 02:04:51 27° 96° (E) 02:09:17 435.225
POLYITAN 1 22 Oct 02:05:25 02:07:51 15° 293° (WNW) 02:10:16 437.675
UKube-1 22 Oct 02:09:51 02:14:08 88° 70° (ENE) 02:18:27 .
ITUPSAT 1 22 Oct 02:23:45 02:26:24 15° 65° (ENE) 02:29:02 437.325
BUGSAT 1 22 Oct 02:36:22 02:40:07 32° 288° (WNW) 02:43:50 437.445
BEESAT 22 Oct 02:37:01 02:40:33 21° 67° (ENE) 02:44:06 436.000
Oscar 19 22 Oct 02:53:47 02:58:49 60° 286° (WNW) 03:03:50 437.125/150
NO-84 22 Oct 02:59:48 03:04:01 56° 316° (NW) 03:08:14 435.350 FM
MOZHAYETS 4 22 Oct 03:12:30 03:17:00 54° 74° (ENE) 03:21:32
M-CUBED/EXP-1 PRIME 22 Oct 03:17:42 03:21:06 37° 290° (WNW) 03:24:44 437.505
CUBESAT XI-V 22 Oct 03:30:17 03:33:16 17° 67° (ENE) 03:36:14 437.345
ITAMSAT 1 22 Oct 03:31:50 03:35:02 16° 93° (E) 03:38:12 435.822/435.867
Gurwin Techsat 1B 22 Oct 03:40:03 03:44:45 33° 291° (WNW) 03:49:26 435.225
RS-15 22 Oct 03:47:04 03:55:57 22° 330° (NNW) 04:04:47 29.354- 29.394
ITUPSAT 1 22 Oct 03:59:03 04:03:44 52° 260° (W) 04:08:26 437.325
AO-7 22 Oct 04:01:35 04:09:33 48° 102° (ESE) 04:17:29 .
BEESAT 22 Oct 04:13:41 04:18:03 35° 262° (W) 04:22:26 436.000
KKS-1 22 Oct 04:27:34 04:30:46 20° 68° (ENE) 04:33:57 437.445
NO-84 22 Oct 04:40:49 04:42:12 11° 333° (NNW) 04:43:35 435.350 FM
MOZHAYETS 4 22 Oct 04:52:38 04:54:25 12° 268° (W) 04:56:14
STARS 22 Oct 04:55:36 04:58:11 16° 66° (ENE) 05:00:48 437.465
CUBESAT XI-V 22 Oct 05:05:56 05:10:17 40° 262° (W) 05:14:37 437.345
ITAMSAT 1 22 Oct 05:09:39 05:14:43 51° 288° (WNW) 05:19:46 435.822/435.867
DOVE 4 22 Oct 05:10:19 05:14:15 22° 95° (E) 05:18:16 437.250
JUGNU 22 Oct 05:24:23 05:27:09 13° 169° (S) 05:29:56 437.505
SO-50 22 Oct 05:35:16 05:38:35 21° 110° (ESE) 05:41:55 436.795
O/OREOS (USA 219) 22 Oct 05:41:31 05:44:39 18° 60° (ENE) 05:47:44 437.305
AO-7 22 Oct 05:54:46 06:02:00 35° 298° (WNW) 06:09:15 .
CUTE-I 22 Oct 05:55:53 05:57:21 11° 91° (E) 05:58:49 437.470
KKS-1 22 Oct 06:03:06 06:07:03 32° 262° (W) 06:11:03 437.445
RS-15 22 Oct 06:09:56 06:15:31 14° 7° (N) 06:20:59 29.354- 29.394
KAITUO 1B 22 Oct 06:12:15 06:13:17 11° 93° (E) 06:14:19 145.475/437.950
XW-2F 22 Oct 06:16:07 06:18:37 17° 95° (E) 06:21:05 145.980 - 146.000
NUDT-PHONESAT 22 Oct 06:22:12 06:24:16 14° 94° (E) 06:26:19 437.300
LilacSat-2 22 Oct 06:24:55 06:28:08 26° 97° (E) 06:31:18 437.200
XW-2D 22 Oct 06:29:26 06:32:43 28° 97° (E) 06:35:59 145.860 - 145.880
STARS 22 Oct 06:30:01 06:34:08 40° 261° (W) 06:38:18 437.465
XW-2B 22 Oct 06:42:44 06:46:17 41° 99° (E) 06:49:50 145.730 - 145.750
STRAND 1 22 Oct 06:43:50 06:47:47 23° 67° (ENE) 06:51:44 437.568
DOVE 4 22 Oct 06:47:15 06:51:56 38° 287° (WNW) 06:56:44 437.250
PCSat 22 Oct 07:02:39 07:06:43 22° 106° (ESE) 07:10:48 145.827
CUTE 1.7 + AOD 2 22 Oct 07:04:59 07:07:28 15° 93° (E) 07:09:57 437.475
XW-2C 22 Oct 07:05:58 07:09:43 87° 274° (W) 07:13:26 145.795 - 145.815
JUGNU 22 Oct 07:11:38 07:15:25 18° 179° (S) 07:19:11 437.505
SO-50 22 Oct 07:14:42 07:18:47 34° 305° (NW) 07:22:54 436.795
O/OREOS (USA 219) 22 Oct 07:19:55 07:24:11 39° 255° (WSW) 07:28:25 437.305
CUTE-I 22 Oct 07:32:29 07:37:51 75° 285° (WNW) 07:43:12 437.470
HO-68 22 Oct 07:33:02 07:39:46 41° 99° (E) 07:46:27 435.675
KAITUO 1B 22 Oct 07:43:59 07:47:22 36° 286° (WNW) 07:50:46 145.475/437.950
XW-2F 22 Oct 07:49:38 07:52:39 24° 288° (WNW) 07:55:41 145.980 - 146.000
YUBILEINY 22 Oct 07:51:08 07:54:30 13° 77° (ENE) 07:57:51 435.215
SRMSAT 22 Oct 07:52:04 07:54:04 12° 166° (SSE) 07:56:04 437.500
NUDT-PHONESAT 22 Oct 07:55:00 07:58:07 27° 288° (WNW) 08:01:13 437.300
LilacSat-2 22 Oct 07:59:46 08:02:09 16° 291° (WNW) 08:04:32 437.200
XW-2D 22 Oct 08:04:27 08:06:36 15° 291° (WNW) 08:08:45 145.860 - 145.880
AO-73 22 Oct 08:10:37 08:12:04 11° 91° (E) 08:13:31 145.935
ISS 22 Oct 08:12:45 08:14:40 15° 128° (SE) 08:16:36 437.550
XW-2B 22 Oct 08:19:13 08:20:02 11° 293° (WNW) 08:20:51 145.730 - 145.750
STRAND 1 22 Oct 08:21:59 08:26:41 36° 262° (W) 08:31:25 437.568
RS-15 22 Oct 08:23:20 08:33:42 32° 41° (NE) 08:43:33 29.354- 29.394
CUBEBUG 2 22 Oct 08:24:52 08:29:29 80° 102° (ESE) 08:33:55 437.445
ZACube-1 22 Oct 08:32:07 08:35:42 25° 95° (E) 08:39:12 437.345
CUTE 1.7 + AOD 2 22 Oct 08:39:33 08:43:22 35° 287° (WNW) 08:47:12 437.475
SEEDS 22 Oct 08:42:23 08:46:27 55° 285° (WNW) 08:50:32 437.485
PCSat 22 Oct 08:44:39 08:49:46 43° 301° (WNW) 08:54:56 145.827
FO-29 22 Oct 08:47:46 08:52:50 54° 72° (ENE) 08:58:14 435.910
XW-2A 22 Oct 08:55:58 08:59:13 53° 285° (WNW) 09:02:27 145.665 - 145.685
UWE-3 22 Oct 08:58:40 09:03:08 75° 282° (WNW) 09:07:26 435.000/436.395/437.385
AAUSAT CUBESAT 2 22 Oct 08:59:50 09:03:59 84° 282° (WNW) 09:08:07 437.432
JUGNU 22 Oct 09:00:33 09:03:40 15° 189° (S) 09:06:48 437.505
Oscar 11 22 Oct 09:04:48 09:08:46 36° 98° (E) 09:12:42 .
UNISAT 6 22 Oct 09:06:58 09:10:15 19° 68° (ENE) 09:13:35 437.425
nSIGHT-1 22 Oct 09:09:24 09:12:35 88° 126° (SE) 09:15:47 .
TIGRISAT 22 Oct 09:20:37 09:24:22 25° 69° (ENE) 09:28:10 435.000
HO-68 22 Oct 09:20:59 09:27:17 34° 295° (WNW) 09:33:33 435.675
PRISM 22 Oct 09:34:27 09:36:31 14° 67° (ENE) 09:38:35 437.425
NO-84 22 Oct 09:36:35 09:39:42 23° 36° (NE) 09:42:37 435.350 FM
SRMSAT 22 Oct 09:38:43 09:42:28 17° 176° (S) 09:46:14 437.500
YUBILEINY 22 Oct 09:41:08 09:49:49 83° 94° (E) 09:58:34 435.215
AO-73 22 Oct 09:44:25 09:48:34 47° 286° (WNW) 09:52:35 145.935
ISS 22 Oct 09:47:47 09:50:52 40° 322° (NW) 09:53:58 437.550
DELFI C3 22 Oct 10:08:12 10:11:56 38° 98° (E) 10:15:39 145.870
ZACube-1 22 Oct 10:08:27 10:11:49 22° 291° (WNW) 10:15:08 437.345
EO-88 22 Oct 10:20:52 10:23:56 25° 97° (E) 10:26:59 145.990 - 145.960
Max Valier Satellite 22 Oct 10:35:13 10:38:51 62° 100° (E) 10:42:27 145.860
RS-15 22 Oct 10:35:33 10:47:19 76° 246° (WSW) 10:58:25 29.354- 29.394
FO-29 22 Oct 10:35:41 10:38:25 14° 270° (W) 10:41:14 435.910
Oscar 11 22 Oct 10:41:53 10:44:34 16° 292° (WNW) 10:47:15 .
UNISAT 6 22 Oct 10:42:22 10:46:39 36° 263° (W) 10:50:59 437.425
nSIGHT-1 22 Oct 10:47:53 10:49:15 12° 334° (NNW) 10:50:37 .
TIGRISAT 22 Oct 10:56:55 11:00:52 28° 264° (W) 11:04:55 435.000
AIST 2D 22 Oct 11:06:45 11:10:00 36° 75° (ENE) 11:13:14 435.315
PRISM 22 Oct 11:07:38 11:11:24 38° 261° (W) 11:15:12 437.425
EO-79 22 Oct 11:13:15 11:16:04 18° 68° (ENE) 11:18:55 145.935-145.965
NO-84 22 Oct 11:13:49 11:17:06 31° 235° (SW) 11:20:08 435.350 FM
POLYITAN 1 22 Oct 11:18:17 11:21:24 20° 69° (ENE) 11:24:33 437.675
ESTCUBE 1 22 Oct 11:27:02 11:29:45 16° 94° (E) 11:32:29 437.505/2401.250
SRMSAT 22 Oct 11:27:21 11:30:54 16° 187° (S) 11:34:28 437.500
BEESAT 2 22 Oct 11:37:05 11:39:49 18° 110° (ESE) 11:42:34 435.950
QB50P2 22 Oct 11:37:48 11:41:44 37° 72° (ENE) 11:45:41 145.880/145.840
NANOSAT C BR1 22 Oct 11:38:56 11:42:39 30° 72° (ENE) 11:46:24 145.865
YUBILEINY 22 Oct 11:42:14 11:47:37 18° 293° (WNW) 11:53:03 435.215
DELFI C3 22 Oct 11:44:26 11:46:17 13° 292° (WNW) 11:48:09 145.870
BEESAT 3 22 Oct 11:47:04 11:51:03 84° 300° (WNW) 11:55:05 437.485
DUCHIFAT 1 22 Oct 11:48:16 11:52:05 34° 72° (ENE) 11:55:55 145.980
EO-88 22 Oct 11:55:09 11:57:20 15° 291° (WNW) 11:59:30 145.990 - 145.960
